Content
SEND FEEDBACK

Daily
Averages
Monthly
Summary
Canada

HAMILTON, ONTARIO


Home > North America > Canada > Ontario
Elevation: 776 feet     Latitude: 43 10N     Longitude: 079 55W

WEATHER
 
SELECT A DAY
Number of Records: 172,426;   Date Range: 1/1/95 - 12/21/14
 
SHARE

PRINT THIS DATA

[ ← Previous Day ]
WEATHER ALMANAC - MARCH 14, 2013
[ Next Day → ]
[ °C ]   °F
Weather ElementAverageHighLow
Temperature23.7 °F30.2 °F (3:00 pm)15.8 °F (8:00 am)
Dewpoint13.1 °F19.4 °F (11:00 pm)8.6 °F (12:00 pm)
Humidity64.1 %86 % (6:00 am)33 % (2:00 pm)
Barometer30.11 in30.15 in (12:00 pm)30.06 in (1:00 am)
Wind Speed12.3 mph20.7 mph (6:00 pm)
Wind Gust27.6 mph (12:00 pm)
Weather ElementAverage
Visibility14.9 mi
Wind DirectionWNW (280.7 °)

Weather ElementTotal
Precipitation---
Heating Degree Days42 (Base 65)
Averaged from 28 records on March 14, 2013
WEATHER CONDITIONS BREAKOUT
WIND DIRECTION BREAKOUT
WEATHER BY HOUR - MARCH 14, 2013
[ °C ]   °F
Local TimeTemperatureDewpointHumidityBarometerVisibilityWind DirectionWind SpeedGust SpeedPrecipitationEventsConditions
1:00 AM21.2 °F14.0 °F74 %30.06 in12.0 miNW (310°)12.7 mphSnowLight Snow
2:00 AM20.0 °F15.0 °F71 %30.06 in15.0 miWNW (290°)10.4 mphSnowLight Snow
2:00 AM19.4 °F14.0 °F80 %30.06 in15.0 miWNW (290°)10.4 mphSnowLight Snow
3:00 AM21.2 °F14.0 °F74 %30.07 in15.0 miWNW (290°)10.4 mph18.4 mphSnowLight Snow
4:00 AM19.4 °F12.2 °F74 %30.08 in15.0 miWNW (300°)8.1 mphSnowLight Snow
5:00 AM19.4 °F14.0 °F80 %30.08 in15.0 miWNW (290°)5.8 mphSnowLight Snow
6:00 AM17.6 °F14.0 °F86 %30.09 in15.0 miWNW (290°)6.9 mphSnowLight Snow
7:00 AM17.6 °F12.2 °F79 %30.11 in15.0 miWNW (300°)5.8 mphPartly Cloudy
7:02 AM17.6 °F12.2 °F79 %30.11 in15.0 miWNW (290°)6.9 mphPartly Cloudy
8:00 AM16.0 °F12.0 °F78 %30.13 in15.0 miWSW (250°)5.8 mphPartly Cloudy
8:00 AM15.8 °F12.2 °F86 %30.13 in15.0 miWSW (250°)6.9 mphPartly Cloudy
9:00 AM21.2 °F12.2 °F68 %30.14 in15.0 miWest (280°)9.2 mphClear
10:00 AM23.0 °F12.2 °F63 %30.14 in15.0 miWNW (290°)13.8 mphClear
11:00 AM24.8 °F12.2 °F59 %30.14 in15.0 miWest (280°)19.6 mphPartly Cloudy
12:00 PM26.6 °F8.6 °F47 %30.15 in15.0 miWest (280°)19.6 mph27.6 mphClear
1:00 PM28.4 °F10.4 °F47 %30.14 in15.0 miNW (310°)15.0 mph24.2 mphClear
2:00 PM29.0 °F11.0 °F33 %30.14 in15.0 miWNW (290°)18.4 mphScattered Clouds
2:00 PM28.4 °F10.4 °F47 %30.14 in15.0 miWNW (290°)19.6 mph26.5 mphPartly Cloudy
3:00 PM30.2 °F12.2 °F47 %30.12 in15.0 miWNW (290°)19.6 mph26.5 mphPartly Cloudy
4:00 PM30.2 °F12.2 °F47 %30.11 in15.0 miWest (270°)19.6 mphPartly Cloudy
5:00 PM30.2 °F15.8 °F55 %30.11 in15.0 miWest (280°)16.1 mph26.5 mphPartly Cloudy
6:00 PM28.4 °F12.2 °F51 %30.11 in15.0 miWest (280°)20.7 mph27.6 mphClear
7:00 PM28.4 °F14.0 °F55 %30.12 in15.0 miWest (270°)11.5 mph21.9 mphPartly Cloudy
8:00 PM26.0 °F13.0 °F44 %30.13 in15.0 miWest (280°)13.8 mphScattered Clouds
8:00 PM26.6 °F12.2 °F55 %30.12 in15.0 miWest (280°)12.7 mph21.9 mphClear
9:00 PM24.8 °F15.8 °F69 %30.11 in15.0 miWest (260°)9.2 mphPartly Cloudy
10:00 PM24.8 °F17.6 °F74 %30.11 in15.0 miWSW (250°)8.1 mphScattered Clouds
11:00 PM26.6 °F19.4 °F74 %30.08 in15.0 miSW (230°)8.1 mphScattered Clouds
Hourly data recorded from CYHM, located miles away from Hamilton, Ontario







STORIES FROM OUR PARTNERS